Вернуться в каталог

STARLINK-11254

АктивенСвязьVLEO
NORAD 60731·PAYLOAD·🇺🇸 United States

Запущен Aug 28, 2024 с Cape Canaveral Space Force Station

Loading…

Ближайшие Пролёты (ближайшие 24 часа)

TLE

СвежийSource: CelesTrak SupGP

Эпоха: Sep 15, 2026, 03:43 UTC

1 60731C 24152M   26258.15534722 -.00024844  00000+0 -20440-3 0  2587
2 60731  53.1573 261.9490 0001149  94.6111  26.0879 15.69750329    11

Отслеживайте STARLINK-11254 в реальном времени с AllMySat

Download on the App Store